Mojave, CA

4:17 AM PDT on October 15, 2019 (GMT -0700)
Mojave

Weather History for KMHV - May, 2019

Change the Weather History Date:

Saturday, May 25, 2019

  Actual Average Record
Temperature  
Mean Temperature 64 °F -  
Max Temperature 75 °F 85 °F 96 °F (1983)
Min Temperature 53 °F 59 °F 42 °F (1980)
Degree Days  
Heating Degree Days 1    
Growing Degree Days 14 (Base 50)    
Moisture  
Dew Point 44 °F    
Average Humidity 49    
Maximum Humidity 67    
Minimum Humidity 25    
Precipitation  
Precipitation 0.03 in - - ()
Sea Level Pressure  
Sea Level Pressure 29.84 in    
Wind  
Wind Speed 16 mph (WSW)    
Max Wind Speed 26 mph    
Max Gust Speed 36 mph    
Visibility 10 miles    
Events      
Averages and records for this station are not official NWS values.
T = Trace of Precipitation, MM = Missing Value Source: NWS Daily Summary

Daily Weather History Graph

Daily Weather History Graph

Search for Another Location

Airport or City:

Astronomy

May. 25, 2019 Rise Set
Actual Time 5:42 AM PDT 7:56 PM PDT
Civil Twilight 5:13 AM PDT 8:25 PM PDT
Nautical Twilight 4:38 AM PDT 9:00 PM PDT
Astronomical Twilight 4:00 AM PDT 9:39 PM PDT
Moon 1:02 AM PDT (5/25) 11:43 AM PDT (5/25)
Length of Visible Light 15h 11m
Length of Day
14h 14m
Waning Gibbous, 58% of the Moon is Illuminated
May 25
Waning Gibbous
May 26
Last Quarter
Jun 3
New
Jun 9
First Quarter
Jun 17
Full

Hourly Weather History & Observations

Time (PDT) Temp. Dew Point Humidity Pressure Visibility Wind Dir Wind Speed Gust Speed Precip Events Conditions
12:00 AM 60.8 °F 48.2 °F 63% 29.89 in 10.0 mi WNW 21.9 mph 27.6 mph N/A   Clear
12:20 AM 60.8 °F 48.2 °F 63% 29.89 in 10.0 mi WNW 16.1 mph 26.5 mph N/A   Clear
12:40 AM 60.8 °F 46.4 °F 59% 29.88 in 10.0 mi NW 17.3 mph 25.3 mph N/A   Clear
1:00 AM 60.8 °F 46.4 °F 59% 29.88 in 10.0 mi WNW 15.0 mph 21.9 mph N/A   Clear
1:20 AM 60.8 °F 46.4 °F 59% 29.88 in 10.0 mi WNW 23.0 mph 32.2 mph N/A   Clear
1:40 AM 60.8 °F 46.4 °F 59% 29.88 in 10.0 mi WNW 21.9 mph 29.9 mph N/A   Clear
2:00 AM 60.8 °F 46.4 °F 59% 29.87 in 10.0 mi NW 23.0 mph - N/A   Partly Cloudy
2:20 AM 60.8 °F 46.4 °F 59% 29.86 in 10.0 mi WNW 26.5 mph 34.5 mph N/A   Partly Cloudy
2:40 AM 60.8 °F 44.6 °F 55% 29.86 in 10.0 mi NW 25.3 mph 32.2 mph N/A   Clear
3:00 AM 60.8 °F 46.4 °F 59% 29.86 in 10.0 mi WNW 18.4 mph - N/A   Partly Cloudy
3:20 AM 60.8 °F 44.6 °F 55% 29.86 in 10.0 mi WNW 13.8 mph 21.9 mph N/A   Scattered Clouds
3:40 AM 59.0 °F 46.4 °F 63% 29.85 in 10.0 mi WNW 15.0 mph 21.9 mph N/A   Mostly Cloudy
4:00 AM 59.0 °F 46.4 °F 63% 29.85 in 10.0 mi West 13.8 mph 21.9 mph N/A   Scattered Clouds
4:20 AM 59.0 °F 46.4 °F 63% 29.85 in 10.0 mi WNW 15.0 mph - N/A   Partly Cloudy
4:40 AM 59.0 °F 46.4 °F 63% 29.85 in 10.0 mi West 9.2 mph 16.1 mph N/A   Clear
5:00 AM 57.2 °F 46.4 °F 67% 29.85 in 10.0 mi SW 10.4 mph - N/A   Partly Cloudy
5:20 AM 59.0 °F 46.4 °F 63% 29.85 in 10.0 mi West 9.2 mph - N/A   Clear
5:40 AM 57.2 °F 44.6 °F 63% 29.85 in 10.0 mi West 10.4 mph - N/A   Clear
6:00 AM 57.2 °F 46.4 °F 67% 29.84 in 10.0 mi West 12.7 mph - N/A   Clear
6:20 AM 57.2 °F 46.4 °F 67% 29.85 in 10.0 mi West 11.5 mph - N/A   Clear
6:40 AM 59.0 °F 46.4 °F 63% 29.85 in 10.0 mi West 9.2 mph - N/A   Clear
7:00 AM 60.8 °F 46.4 °F 59% 29.85 in 10.0 mi West 6.9 mph - N/A   Clear
7:20 AM 62.6 °F 46.4 °F 55% 29.86 in 10.0 mi WSW 6.9 mph - N/A   Clear
7:40 AM 62.6 °F 46.4 °F 55% 29.86 in 10.0 mi WSW 8.1 mph - N/A   Clear
8:00 AM 64.4 °F 46.4 °F 52% 29.86 in 10.0 mi WSW 9.2 mph - N/A   Clear
8:20 AM 66.2 °F 44.6 °F 46% 29.86 in 10.0 mi WSW 12.7 mph - N/A   Clear
8:40 AM 66.2 °F 44.6 °F 46% 29.86 in 10.0 mi West 11.5 mph - N/A   Clear
9:00 AM 68.0 °F 44.6 °F 43% 29.86 in 10.0 mi West 9.2 mph 15.0 mph N/A   Clear
9:20 AM 68.0 °F 44.6 °F 43% 29.86 in 10.0 mi WSW 11.5 mph - N/A   Clear
9:40 AM 68.0 °F 44.6 °F 43% 29.86 in 10.0 mi West 10.4 mph - N/A   Clear
10:00 AM 68.0 °F 44.6 °F 43% 29.86 in 10.0 mi West 10.4 mph 18.4 mph N/A   Clear
10:20 AM 69.8 °F 44.6 °F 40% 29.85 in 10.0 mi West 15.0 mph - N/A   Clear
10:40 AM 71.6 °F 44.6 °F 38% 29.86 in 10.0 mi West 12.7 mph 19.6 mph N/A   Clear
11:00 AM 71.6 °F 42.8 °F 35% 29.86 in 10.0 mi West 16.1 mph - N/A   Clear
11:20 AM 71.6 °F 42.8 °F 35% 29.86 in 10.0 mi West 8.1 mph 20.7 mph N/A   Clear
11:40 AM 71.6 °F 41.0 °F 33% 29.85 in 10.0 mi NW 16.1 mph - N/A   Clear
12:00 PM 69.8 °F 39.2 °F 33% 29.85 in 10.0 mi WNW 11.5 mph 20.7 mph N/A   Mostly Cloudy
12:20 PM 73.4 °F 37.4 °F 27% 29.85 in 10.0 mi WNW 12.7 mph - N/A   Overcast
12:40 PM 75.2 °F 37.4 °F 25% 29.84 in 10.0 mi NW 10.4 mph 19.6 mph N/A   Partly Cloudy
1:00 PM 73.4 °F 37.4 °F 27% 29.84 in 10.0 mi West 15.0 mph - N/A   Scattered Clouds
1:20 PM 73.4 °F 39.2 °F 29% 29.84 in 10.0 mi Calm Calm 20.7 mph N/A   Mostly Cloudy
1:40 PM 71.6 °F 37.4 °F 29% 29.83 in 10.0 mi West 10.4 mph - N/A   Mostly Cloudy
2:00 PM 71.6 °F 39.2 °F 31% 29.83 in 10.0 mi South 6.9 mph 15.0 mph N/A   Mostly Cloudy
2:20 PM 73.4 °F 39.2 °F 29% 29.82 in 10.0 mi South 18.4 mph - N/A   Mostly Cloudy
3:00 PM 73.4 °F 42.8 °F 33% 29.81 in 10.0 mi SSW 25.3 mph 31.1 mph N/A   Partly Cloudy
3:20 PM 73.4 °F 41.0 °F 31% 29.80 in 10.0 mi SSW 24.2 mph 34.5 mph N/A   Clear
3:40 PM 73.4 °F 41.0 °F 31% 29.80 in 10.0 mi SSW 21.9 mph 28.8 mph N/A   Clear
4:00 PM 73.4 °F 42.8 °F 33% 29.80 in 10.0 mi SSW 21.9 mph 35.7 mph N/A   Clear
4:20 PM 73.4 °F 42.8 °F 33% 29.80 in 10.0 mi SSW 24.2 mph 29.9 mph N/A   Clear
4:40 PM 71.6 °F 42.8 °F 35% 29.79 in 10.0 mi SSW 24.2 mph 31.1 mph N/A   Clear
5:00 PM 69.8 °F 42.8 °F 38% 29.80 in 10.0 mi SW 20.7 mph 31.1 mph N/A   Scattered Clouds
5:20 PM 66.2 °F 48.2 °F 52% 29.82 in 10.0 mi SW 23.0 mph 34.5 mph N/A   Mostly Cloudy
5:40 PM 62.6 °F 48.2 °F 59% 29.82 in 10.0 mi SSW 12.7 mph - N/A   Mostly Cloudy
6:00 PM 66.2 °F 50.0 °F 56% 29.82 in 10.0 mi WSW 12.7 mph 19.6 mph 0.03 in   Partly Cloudy
6:20 PM 68.0 °F 50.0 °F 52% 29.82 in 10.0 mi West 17.3 mph 24.2 mph N/A   Clear
6:40 PM 64.4 °F 46.4 °F 52% 29.82 in 10.0 mi West 23.0 mph - N/A   Scattered Clouds
7:00 PM 62.6 °F 41.0 °F 45% 29.81 in 10.0 mi WNW 17.3 mph - N/A   Scattered Clouds
7:20 PM 62.6 °F 39.2 °F 42% 29.81 in 10.0 mi West 12.7 mph - N/A   Partly Cloudy
7:40 PM 62.6 °F 39.2 °F 42% 29.81 in 10.0 mi SW 9.2 mph - N/A   Clear
8:00 PM 60.8 °F 41.0 °F 48% 29.80 in 10.0 mi SW 6.9 mph - N/A   Clear
8:20 PM 59.0 °F 42.8 °F 55% 29.80 in 10.0 mi West 9.2 mph 16.1 mph N/A   Clear
8:40 PM 59.0 °F 41.0 °F 51% 29.81 in 10.0 mi WSW 12.7 mph 18.4 mph N/A   Clear
9:00 PM 59.0 °F 42.8 °F 55% 29.80 in 10.0 mi SW 9.2 mph - N/A   Clear
9:20 PM 59.0 °F 41.0 °F 51% 29.80 in 10.0 mi SW 10.4 mph - N/A   Clear
9:40 PM 59.0 °F 41.0 °F 51% 29.81 in 10.0 mi SSW 11.5 mph - N/A   Clear
10:00 PM 57.2 °F 42.8 °F 59% 29.81 in 10.0 mi SSW 10.4 mph - N/A   Scattered Clouds
10:20 PM 57.2 °F 42.8 °F 59% 29.80 in 10.0 mi SW 10.4 mph - N/A   Mostly Cloudy
10:40 PM 55.4 °F 42.8 °F 63% 29.80 in 10.0 mi SW 6.9 mph - N/A   Mostly Cloudy
11:00 PM 55.4 °F 42.8 °F 63% 29.80 in 10.0 mi SW 9.2 mph - N/A   Mostly Cloudy
11:20 PM 53.6 °F 42.8 °F 67% 29.79 in 10.0 mi SSW 12.7 mph - N/A   Scattered Clouds
11:40 PM 53.6 °F 42.8 °F 67% 29.79 in 10.0 mi SW 11.5 mph - N/A   Scattered Clouds